Flag Weather past 2 weeks in Kaohsiung, Taiwan

Now
86 °F

Scattered clouds.


Feels Like: 92 °F
Forecast: 72 / 87 °F
Wind: 13 mph from West

Location: Kaohsiung International Airport

Current Time: Oct 31, 2014 at 1:10:38 PM

Latest Report: Oct 31, 2014 at 12:30 PM


Visibility: N/A

Pressure: 29.92 "Hg

Humidity: 62%

Dew point: 72 °F

Location of KaohsiungLocation

Historic Weather in Kaohsiung — Graph

°F

Kaohsiung temperature yesterday

Maximum temperature yesterday: 86 °F (at 11:30 AM)
Minimum temperature yesterday: 73 °F (at 2:00 AM)
Average temperature yesterday: 80 °F

Past Weeks' High & Low Weather Summary

 TemperatureHumidityPressure
High91 °F (Oct 22, 11:56 AM)94% (Oct 25, 6:30 AM)30.07 "Hg (Oct 25, 6:30 AM)
Low70 °F (Oct 17, 5:00 AM)43% (Oct 18, 11:30 AM)29.89 "Hg (Oct 20, 1:30 PM)
Average81 °F70%29.99 "Hg
* Reported Oct 16 12:00 Noon — Oct 31 12:00 Noon, Kaohsiung, Weather by CustomWeather, © 2014

Note: Actual official high and low records may vary slightly from our data, if they occured in-between our weather recording intervals... More about our weather records

Advertising

Kaohsiung weather history for previous 24 hours

 ConditionsComfort  
Time TempWeatherWind HumidityBarometerVisibility
12:00 PM
Oct 31
86 °FScattered clouds.10 mph59%29.92 "HgN/A
11:30 AM84 °FScattered clouds.10 mph62%29.95 "HgN/A
11:00 AM86 °FScattered clouds.10 mph59%29.95 "Hg5 mi
10:30 AM84 °FScattered clouds.8 mph58%29.95 "Hg6 mi
10:00 AM84 °FScattered clouds.6 mph62%29.98 "Hg5 mi
9:30 AM82 °FScattered clouds.2 mph70%29.98 "Hg4 mi
9:00 AM82 °FScattered clouds.2 mph70%29.98 "Hg3 mi
8:30 AM81 °FBroken clouds.2 mph70%29.98 "Hg2 mi
8:00 AM81 °FBroken clouds.2 mph74%29.98 "Hg2 mi
7:30 AM79 °FFog.3 mph79%29.98 "Hg2 mi
7:00 AM77 °FFog.2 mph83%29.98 "Hg2 mi
6:30 AM75 °FFog.2 mph89%29.95 "Hg2 mi
6:00 AM75 °FFog.5 mph89%29.95 "Hg2 mi
5:00 AM75 °FFog.3 mph89%29.95 "Hg2 mi
4:03 AM75 °FFog.7 mph89%29.95 "Hg2 mi
3:00 AM77 °FPartly cloudy.2 mph83%29.95 "Hg4 mi
2:00 AM77 °FPassing clouds.5 mph83%29.95 "Hg4 mi
1:00 AM77 °FPassing clouds.2 mph83%29.95 "Hg4 mi
12:00 AM75 °FPassing clouds.3 mph89%29.98 "Hg4 mi
11:30 PM
Oct 30
77 °FPassing clouds.5 mph83%29.98 "Hg4 mi
11:00 PM77 °FPartly cloudy.3 mph83%29.98 "Hg4 mi
10:30 PM77 °FPartly cloudy.3 mph83%30.01 "Hg4 mi
10:00 PM79 °FPartly cloudy.3 mph79%30.01 "Hg5 mi
9:30 PM79 °FPartly cloudy.6 mph79%30.01 "Hg5 mi
9:00 PM79 °FPartly cloudy.5 mph79%30.01 "Hg4 mi
8:30 PM79 °FPartly cloudy.5 mph74%30.01 "HgN/A
8:00 PM79 °FPassing clouds.3 mph74%30.01 "Hg5 mi
7:30 PM79 °FPassing clouds.6 mph74%29.98 "Hg5 mi
7:00 PM81 °FPassing clouds.8 mph70%29.98 "Hg5 mi
6:30 PM79 °FPassing clouds.8 mph79%29.98 "Hg5 mi
6:00 PM79 °FPassing clouds.8 mph74%29.95 "Hg5 mi
5:30 PM81 °FPassing clouds.8 mph70%29.95 "Hg4 mi
5:00 PM81 °FBroken clouds.8 mph74%29.95 "Hg5 mi
4:30 PM81 °FClear.9 mph70%29.95 "Hg6 mi
4:00 PM82 °FClear.9 mph66%29.95 "Hg6 mi
3:30 PM84 °FBroken clouds.10 mph66%29.95 "Hg6 mi
3:00 PM84 °FPassing clouds.10 mph62%29.95 "HgN/A
2:30 PM84 °FPassing clouds.12 mph62%29.95 "HgN/A
2:00 PM84 °FPartly sunny.13 mph62%29.95 "Hg6 mi
1:30 PM84 °FBroken clouds.13 mph62%29.95 "HgN/A
Weather by CustomWeather, © 2014

See weather overviewHow to use our weather pages